Home > Weather > Washington DC > Past weeks

Flag for USA Past 2 weeks in Washington DC, District of Columbia, USA

Now
47 °F

Mostly cloudy.


Feels Like: 43 °F
Forecast: 43 / 53 °F
Wind: 7 mph from ENE

Location: Reagan National Airport


UV Index: 0 (Low)

Visibility: 10 mi


Pressure: 30.27 "Hg

Humidity: 54%

Dew point: 31 °F

Location of Washington DC

Historic Weather in Washington DC

°F

Past Weeks' High & Low Weather Summary

 TemperatureHumidityPressure
High78 °F (Mar 25, 3:52 PM)100% (Mar 26, 10:52 PM)30.68 "Hg (Mar 26, 10:52 PM)
Low25 °F (Mar 15, 8:52 AM)17% (Mar 22, 4:52 PM)29.82 "Hg (Mar 28, 4:52 PM)
Average49 °F60%30.16 "Hg
* Reported Mar 15 8:52 AM — Mar 30 8:52 AM, Washington DC, Weather by CustomWeather, © 2014

Note: Actual official high and low records may vary slightly from our data, if they occured in-between our weather recording intervals... More about our weather records

Advertising

Historic Weather Conditions — Data for Previous 24 hours

 ConditionsComfort  
Time TempWeatherWind HumidityBarometerVisibility
8:52 AM
Mar 30
47 °FMostly cloudy.7 mph54%30.27 "Hg10 mi
7:52 AM47 °FCloudy.14 mph54%30.27 "Hg10 mi
6:52 AM47 °FOvercast.13 mph52%30.25 "Hg10 mi
5:52 AM48 °FOvercast.10 mph52%30.24 "Hg10 mi
4:52 AM48 °FPassing clouds.7 mph52%30.22 "Hg10 mi
3:52 AM49 °FPassing clouds.10 mph52%30.21 "Hg10 mi
2:52 AM50 °FPassing clouds.9 mph50%30.21 "Hg10 mi
1:52 AM51 °FPassing clouds.8 mph48%30.20 "Hg10 mi
12:52 AM52 °FClear.6 mph50%30.19 "Hg10 mi
11:52 PM
Mar 29
54 °FPassing clouds.10 mph45%30.20 "Hg10 mi
10:52 PM55 °FClear.10 mph45%30.19 "Hg10 mi
9:52 PM57 °FPassing clouds.13 mph44%30.19 "Hg10 mi
8:52 PM60 °FPassing clouds.12 mph41%30.16 "Hg10 mi
7:52 PM61 °FPassing clouds.13 mph42%30.14 "Hg10 mi
6:52 PM63 °FPassing clouds.12 mph43%30.11 "Hg10 mi
5:52 PM66 °FPassing clouds.10 mph34%30.09 "Hg10 mi
4:52 PM67 °FPassing clouds.7 mph32%30.08 "Hg10 mi
3:52 PM66 °FPassing clouds.10 mph34%30.08 "Hg10 mi
2:52 PM66 °FPassing clouds.12 mph37%30.10 "Hg10 mi
1:52 PM64 °FPassing clouds.15 mph41%30.12 "Hg10 mi
12:52 PM62 °FPassing clouds.10 mph43%30.12 "Hg10 mi
11:52 AM61 °FPassing clouds.10 mph50%30.13 "Hg10 mi
10:52 AM60 °FPassing clouds.14 mph56%30.13 "Hg10 mi
Weather by CustomWeather, © 2014

See weather overview